User: anonymous   Login
Location: Columbia
(38.9520°N, 92.3340°W)
Time: 04:22:35
(UTC-05:00)
Language:

Cosmos 158 Rocket - Orbit

View from above orbital plane
View from above orbital plane
View from above satellite
View from above satellite

Ground track
Ground track

The orbit data is extracted from the following two-line orbital elements,

1 02802U 67045B   15086.86582502  .00000656  00000-0  19715-3 0  9993
2 02802 074.0112 238.6441 0066037 128.9504 231.7564 14.43403633511767
Epoch (UTC): 27 March 2015 20:46:47
Eccentricity: 0.0066037
inclination: 74.0112°
perigee height: 700 km
apogee height: 794 km
right ascension of ascending node: 238.6441°
argument of perigee: 128.9504°
revolutions per day: 14.43403633
mean anomaly at epoch: 231.7564°
orbit number at epoch: 51176

The dashed part of the orbit path shows where the satellite is in the earth's shadow,  

DLR